Simultaneous Nadir Overpasses (SNOs) Predictions

Prediction of SNOs between AQUA and GOES-15 Satellite Orbit:

Table of predicted SNOs for the next 14.0 days since TLE Epoch: 10/9/2015
Index Date Time (AQUA) AQUA Lat,Lon GOES-15 Lat,Lon Distance(km) Time Diff (sec)
1 10/10/2015 10:19:34 -0.59,-131.11 0.23,-134.91 432.08 80
2 10/10/2015 22:40:57 -0.51,-136.30 -0.21,-134.91 158.93 80
3 10/12/2015 22:28:45 0.13,-133.35 -0.21,-134.85 171.13 80
4 10/13/2015 10:50:00 1.00,-138.50 0.19,-134.83 418.11 80
5 10/15/2015 10:37:48 0.35,-135.54 0.20,-134.76 88.85 80
6 10/17/2015 10:25:35 -0.24,-132.57 0.20,-134.68 239.63 80
7 10/17/2015 22:46:59 -0.84,-137.77 -0.17,-134.66 353.25 80
8 10/19/2015 22:34:46 -0.24,-134.80 -0.17,-134.58 25.62 80
9 10/21/2015 22:22:33 0.38,-131.84 -0.17,-134.49 301.38 80
10 10/22/2015 10:43:49 0.68,-137.00 0.15,-134.47 287.56 80




NCC Satellite Simultaneous Nadir Overpasses (SNOs) Prediction Service
